Tracking 30743 objects as of 20-Jun-2025
HD Live streaming from Space Station
objects crossing your sky now

COSMOS 1375 DEB

Track COSMOS 1375 DEB now!
10-day predictions


NORAD ID: 17803
Int'l Code: 1982-055AV
Perigee: 942.2 km
Apogee: 995.0 km
Inclination: 65.8 °
Period: 104.3 minutes
Semi major axis: 7339 km
RCS: 0.014 m2 (small)
Launch date: June 6, 1982
Source: Commonwealth of Independent States (former USSR) (CIS)
Launch site: PLESETSK MISSILE AND SPACE COMPLEX (PKMTR)

Note: This is SATELLITE DEBRIS
Your satellite tracking list
Your tracking list is empty




NASA's NSSDC Master Catalog

Two Line Element Set (TLE):
1 17803U 82055AV  25170.83824230  .00000128  00000-0  19879-3 0  9992
2 17803  65.8332  52.4948 0035995  33.8071  41.5987 13.80682876993850
Source of the keplerian elements: AFSPC